Flag for U.S.A. Weather past 2 weeks in Garland, Texas, U.S.A.

Now
60 °F

Passing clouds.


Feels Like: 60 °F
Forecast: 64 / 77 °F
Wind: 3 mph from Northeast

Location: Mesquite Metro Airport

Current Time: Apr 18, 2015 at 6:42:03 AM

Latest Report: Apr 18, 2015 at 6:15 AM


Visibility: 10 mi

Pressure: 29.89 "Hg

Humidity: 97%

Dew point: 60 °F

Location of GarlandLocation

Historic Weather in Garland — Graph

°F

Garland temperature yesterday

Maximum temperature yesterday: 75 °F (at 4:50 PM)
Minimum temperature yesterday: 57 °F (at 5:35 AM)
Average temperature yesterday: 64 °F

Past Weeks' High & Low Weather Summary

 TemperatureHumidityPressure
High82 °F (Apr 6, 3:50 PM)100% (Apr 5, 8:47 AM)30.41 "Hg (Apr 5, 8:47 AM)
Low48 °F (Apr 4, 6:50 AM)24% (Apr 4, 3:50 PM)29.78 "Hg (Apr 8, 8:15 PM)
Average65 °F78%29.99 "Hg
* Reported Apr 3 5:15 AM — Apr 18 5:15 AM, Garland, Weather by CustomWeather, © 2015

Note: Actual official high and low records may vary slightly from our data, if they occured in-between our weather recording intervals... More about our weather records

Advertising

Garland weather history for previous 24 hours

 ConditionsComfort  
Time TempWeatherWind HumidityBarometerVisibility
5:15 AM
Sat, Apr 18
62 °FPassing clouds.No wind97%29.89 "Hg10 mi
4:55 AM62 °FOvercast.No wind97%29.89 "Hg10 mi
4:35 AM62 °FPassing clouds.3 mph97%29.90 "Hg10 mi
4:15 AM62 °FPassing clouds.No wind97%29.90 "Hg10 mi
3:55 AM62 °FPassing clouds.No wind98%29.91 "Hg10 mi
3:35 AM63 °FClear.No wind97%29.91 "Hg10 mi
3:15 AM63 °FClear.7 mph98%29.91 "Hg10 mi
2:55 AM63 °FClear.6 mph98%29.92 "Hg10 mi
2:35 AM63 °FClear.6 mph98%29.93 "Hg7 mi
2:15 AM63 °FClear.3 mph98%29.94 "Hg10 mi
1:55 AM63 °FPassing clouds.No wind98%29.95 "Hg10 mi
1:35 AM63 °FPassing clouds.No wind97%29.96 "Hg10 mi
1:15 AM63 °FPassing clouds.No wind98%29.96 "Hg10 mi
12:55 AM63 °FPassing clouds.No wind97%29.96 "Hg10 mi
12:15 AM63 °FMostly cloudy.7 mph97%29.94 "Hg10 mi
11:55 PM
Fri, Apr 17
64 °FOvercast.No wind97%29.98 "Hg5 mi
11:35 PM64 °FMostly cloudy.No wind97%29.99 "Hg4 mi
11:15 PM63 °FOvercast.3 mph97%29.98 "Hg5 mi
10:55 PM64 °FOvercast.6 mph96%29.99 "Hg4 mi
10:15 PM64 °FMostly cloudy.13 mph94%29.99 "Hg1 mi
9:55 PM67 °FMostly cloudy.16 mph87%29.98 "Hg4 mi
9:35 PM68 °FMostly cloudy.13 mph82%29.95 "Hg10 mi
9:15 PM71 °FPassing clouds.6 mph84%29.93 "Hg10 mi
8:55 PM70 °FScattered clouds.No wind83%29.91 "Hg10 mi
8:35 PM70 °FSunny.No wind84%29.91 "Hg10 mi
8:15 PM72 °FScattered clouds.No wind78%29.90 "Hg10 mi
7:50 PM72 °FBroken clouds.No wind78%29.90 "Hg10 mi
6:50 PM73 °FBroken clouds.No wind74%29.91 "Hg10 mi
5:50 PM73 °FCloudy.3 mph69%29.92 "Hg10 mi
4:50 PM75 °FScattered clouds.6 mph65%29.94 "Hg10 mi
3:50 PM73 °FOvercast.6 mph69%29.96 "Hg10 mi
2:50 PM72 °FCloudy.5 mph73%29.98 "Hg10 mi
1:50 PM72 °FOvercast.5 mph73%29.97 "Hg10 mi
12:50 PM70 °FOvercast.6 mph78%30.01 "Hg10 mi
11:50 AM70 °FMostly cloudy.6 mph78%30.02 "Hg10 mi
10:50 AM66 °FOvercast.5 mph83%30.04 "Hg10 mi
9:50 AM64 °FOvercast.6 mph88%30.02 "Hg10 mi
8:50 AM63 °FLow clouds.9 mph94%30.01 "Hg7 mi
7:50 AM61 °FFog.No wind100%30.00 "Hg6 mi
6:50 AM59 °FFog.5 mph100%29.98 "Hg5 mi
6:15 AM58 °FPassing clouds.6 mph99%29.96 "Hg7 mi
Weather by CustomWeather, © 2015

See weather overviewHow to use our weather pages